map of MZH home
Great Circle Mapper logo
MZH - Airport
Location
City:  Merzifon, Turkey
ICAO / IATA:LTAP / MZH

Details
Type:Airport (Aerodrome, Airfield)
Use:Military
Latitude:4049'46"N (40.829375)
Longitude:3531'19"E (35.521992)
Datum:WGS 1984
Elevation:1758 ft (536 m)
Runways:1
Longest:9600 × 148 ft (2926 × 45 m), paved

Time
Time Zone:UTC+2 (DST+3)
Local Time:

Weather
METAR:LTAP 190533Z 00000KT 9999 -SHRA SCT015 BKN033 BKN090 16/14 Q1017 NOSIG RMK RWY23 VRB01KT
TAF:LTAP 190440Z 1906/2006 VRB02KT 9999 SCT035 BKN090
TEMPO 1906/1909 -SHRA BKN033 BKN090
BECMG 1911/1913 03012KT PROB30
TEMPO 1913/1917 -SHRA BKN033 BKN090
BECMG 1918/1921 VRB02KT

Related Locations
Nearby:
Farthest:NTAV: 11248 mi / 18102 km
Raivavae, Tubuai Islands, Austral Islands, PF

Find:

   beyond  
but within

Other Information
Maps:
NOTAMs:
Links:
Sources:

  
flag of Turkey   

Airport Diagram

Airport diagram for MZH

Airport diagram (OBSOLETE) from NGA

Sectional Chart

Flight Planning
at skyvector.com

Satellite Image

Google Maps Satellite View

 

Copyright © 2004-2014 Karl L. Swartz. All rights reserved.
The Great Circle Mapper name and logo are trademarks of the Great Circle Mapper.
All other trademarks mentioned herein belong to their respective owners.
Please see credits for attibutions and further copyright information.

  Follow gcmap on Facebook Follow gcmap on Twitter

hCard Microformat

Geo Microformat